Westminster, MD

12:09 AM EDT on September 30, 2016 (GMT -0400)
Carroll County Regional-Poage

Weather History for KDMW - May, 2013

Change the Weather History Date:

Saturday, May 4, 2013

  Actual Average (KTHV) Record (KTHV)
Temperature  
Mean Temperature 56 °F -  
Max Temperature 71 °F 56 °F 89 °F (2001)
Min Temperature 41 °F 40 °F 28 °F (2002)
Degree Days  
Heating Degree Days 9    
Growing Degree Days 6 (Base 50)    
Moisture  
Dew Point 39 °F    
Average Humidity 58    
Maximum Humidity 87    
Minimum Humidity 27    
Precipitation  
Precipitation 0.00 in - - ()
Sea Level Pressure  
Sea Level Pressure 30.27 in    
Wind  
Wind Speed 2 mph (ESE)    
Max Wind Speed 14 mph    
Max Gust Speed 18 mph    
Visibility 10 miles    
Events      
Averages and records for this station are not official NWS values.
T = Trace of Precipitation, MM = Missing Value Source: NWS Daily Summary

Daily Weather History Graph

Daily Weather History Graph

Search for Another Location

Airport or City:

Trip Planner

Search our weather history database for the weather conditions in past years. The results will help you decide how hot, cold, wet, or windy it might be!

Date:

Astronomy

May. 04, 2013 Rise Set
Actual Time 6:04 AM EDT 8:05 PM EDT
Civil Twilight 5:35 AM EDT 8:34 PM EDT
Nautical Twilight 4:59 AM EDT 9:10 PM EDT
Astronomical Twilight 4:20 AM EDT 9:49 PM EDT
Moon 3:01 AM EDT (5/4) 3:01 PM EDT (5/4)
Length of Visible Light 14h 59m
Length of Day
14h 00m
Waning Crescent, 27% of the Moon is Illuminated
May 4
Waning Crescent
May 9
New
May 18
First Quarter
May 25
Full
May 31
Last Quarter

Hourly Weather History & Observations

Time (EDT) Temp. Dew Point Humidity Pressure Visibility Wind Dir Wind Speed Gust Speed Precip Events Conditions
12:05 AM 46.4 °F 41.0 °F 81% 30.35 in 10.0 mi Calm Calm - N/A   Clear
12:25 AM 46.4 °F 41.0 °F 81% 30.35 in 10.0 mi Calm Calm - N/A   Clear
12:45 AM 46.4 °F 41.0 °F 81% 30.35 in 10.0 mi Calm Calm - N/A   Clear
1:25 AM 44.6 °F 39.2 °F 81% 30.34 in 10.0 mi Calm Calm - N/A   Clear
1:45 AM 44.6 °F 39.2 °F 81% 30.33 in 10.0 mi Calm Calm - N/A   Clear
2:05 AM 44.6 °F 39.2 °F 81% 30.32 in 10.0 mi Calm Calm - N/A   Clear
2:25 AM 42.8 °F 39.2 °F 87% 30.31 in 10.0 mi Calm Calm - N/A   Clear
2:50 AM 42.8 °F 39.2 °F 87% 30.30 in 10.0 mi Calm Calm - N/A   Clear
3:10 AM 42.8 °F 37.4 °F 81% 30.30 in 10.0 mi Calm Calm - N/A   Clear
3:30 AM 42.8 °F 39.2 °F 87% 30.30 in 10.0 mi Calm Calm - N/A   Clear
3:50 AM 41.0 °F 37.4 °F 87% 30.30 in 10.0 mi Calm Calm - N/A   Clear
4:10 AM 41.0 °F 37.4 °F 87% 30.30 in 10.0 mi Calm Calm - N/A   Mostly Cloudy
4:30 AM 42.8 °F 39.2 °F 87% 30.30 in 10.0 mi Calm Calm - N/A   Overcast
4:50 AM 42.8 °F 39.2 °F 87% 30.30 in 10.0 mi Calm Calm - N/A   Overcast
5:10 AM 42.8 °F 39.2 °F 87% 30.30 in 10.0 mi Calm Calm - N/A   Overcast
5:30 AM 44.6 °F 41.0 °F 87% 30.30 in 10.0 mi Calm Calm - N/A   Overcast
5:50 AM 42.8 °F 39.2 °F 87% 30.30 in 10.0 mi Calm Calm - N/A   Overcast
6:10 AM 42.8 °F 39.2 °F 87% 30.31 in 10.0 mi Calm Calm - N/A   Overcast
6:30 AM 41.0 °F 37.4 °F 87% 30.31 in 10.0 mi Calm Calm - N/A   Scattered Clouds
6:50 AM 42.8 °F 39.2 °F 87% 30.31 in 10.0 mi Calm Calm - N/A   Clear
7:10 AM 42.8 °F 39.2 °F 87% 30.31 in 10.0 mi Calm Calm - N/A   Clear
7:30 AM 44.6 °F 41.0 °F 87% 30.31 in 10.0 mi Calm Calm - N/A   Clear
7:50 AM 44.6 °F 41.0 °F 87% 30.32 in 10.0 mi Calm Calm - N/A   Clear
8:10 AM 46.4 °F 42.8 °F 87% 30.32 in 10.0 mi Calm Calm - N/A   Clear
8:30 AM 48.2 °F 42.8 °F 82% 30.32 in 10.0 mi Calm Calm - N/A   Clear
8:50 AM 50.0 °F 44.6 °F 82% 30.32 in 10.0 mi ENE 3.5 mph - N/A   Clear
9:10 AM 51.8 °F 42.8 °F 71% 30.31 in 10.0 mi East 4.6 mph - N/A   Clear
9:30 AM 53.6 °F 39.2 °F 58% 30.31 in 10.0 mi ESE 5.8 mph - N/A   Clear
9:50 AM 55.4 °F 39.2 °F 54% 30.31 in 10.0 mi East 5.8 mph - N/A   Clear
10:10 AM 55.4 °F 37.4 °F 51% 30.30 in 10.0 mi SE 8.1 mph - N/A   Clear
10:30 AM 57.2 °F 35.6 °F 44% 30.30 in 10.0 mi East 6.9 mph - N/A   Clear
10:50 AM 57.2 °F 37.4 °F 48% 30.30 in 10.0 mi ESE 4.6 mph - N/A   Clear
11:10 AM 60.8 °F 35.6 °F 39% 30.30 in 10.0 mi East 4.6 mph - N/A   Clear
11:30 AM 59.0 °F 35.6 °F 42% 30.29 in 10.0 mi East 4.6 mph - N/A   Clear
11:50 AM 60.8 °F 35.6 °F 39% 30.29 in 10.0 mi ENE 4.6 mph - N/A   Clear
12:10 PM 62.6 °F 37.4 °F 39% 30.28 in 10.0 mi ENE 4.6 mph - N/A   Clear
12:30 PM 62.6 °F 37.4 °F 39% 30.27 in 10.0 mi Calm Calm - N/A   Clear
12:50 PM 64.4 °F 35.6 °F 34% 30.27 in 10.0 mi ESE 6.9 mph - N/A   Clear
1:10 PM 66.2 °F 35.6 °F 32% 30.26 in 10.0 mi ESE 6.9 mph - N/A   Clear
1:30 PM 66.2 °F 35.6 °F 32% 30.26 in 7.0 mi East 6.9 mph - N/A   Clear
1:50 PM 66.2 °F 37.4 °F 35% 30.25 in 10.0 mi East 6.9 mph - N/A   Clear
2:10 PM 68.0 °F 37.4 °F 33% 30.25 in 10.0 mi East 8.1 mph - N/A   Clear
2:30 PM 68.0 °F 37.4 °F 33% 30.24 in 10.0 mi East 4.6 mph - N/A   Clear
2:50 PM 69.8 °F 33.8 °F 27% 30.23 in 10.0 mi East 9.2 mph - N/A   Clear
3:10 PM 68.0 °F 37.4 °F 33% 30.23 in 10.0 mi ESE 4.6 mph - N/A   Clear
3:30 PM 69.8 °F 33.8 °F 27% 30.22 in 10.0 mi East 6.9 mph 16.1 mph N/A   Clear
3:50 PM 69.8 °F 35.6 °F 28% 30.22 in 10.0 mi ESE 9.2 mph 18.4 mph N/A   Clear
4:10 PM 71.6 °F 35.6 °F 27% 30.21 in 10.0 mi ESE 9.2 mph - N/A   Clear
4:30 PM 69.8 °F 33.8 °F 27% 30.21 in 10.0 mi East 5.8 mph 17.3 mph N/A   Clear
4:50 PM 69.8 °F 33.8 °F 27% 30.21 in 10.0 mi SE 8.1 mph 16.1 mph N/A   Clear
5:10 PM 69.8 °F 35.6 °F 28% 30.20 in 10.0 mi SSE 9.2 mph - N/A   Clear
5:30 PM 69.8 °F 35.6 °F 28% 30.20 in 10.0 mi SE 13.8 mph 17.3 mph N/A   Clear
5:50 PM 69.8 °F 37.4 °F 31% 30.20 in 10.0 mi ESE 6.9 mph - N/A   Clear
6:10 PM 68.0 °F 35.6 °F 30% 30.20 in 10.0 mi SE 11.5 mph - N/A   Clear
6:30 PM 66.2 °F 37.4 °F 35% 30.20 in 10.0 mi SE 3.5 mph - N/A   Clear
6:50 PM 66.2 °F 37.4 °F 35% 30.20 in 10.0 mi ESE 4.6 mph - N/A   Clear
7:10 PM 66.2 °F 37.4 °F 35% 30.20 in 10.0 mi Calm Calm - N/A   Clear
7:30 PM 64.4 °F 41.0 °F 42% 30.20 in 10.0 mi ESE 3.5 mph - N/A   Clear
7:50 PM 64.4 °F 39.2 °F 40% 30.20 in 10.0 mi Calm Calm - N/A   Clear
8:10 PM 62.6 °F 42.8 °F 48% 30.20 in 10.0 mi ESE 5.8 mph - N/A   Clear
8:30 PM 60.8 °F 42.8 °F 52% 30.21 in 10.0 mi SE 6.9 mph - N/A   Clear
8:50 PM 59.0 °F 42.8 °F 55% 30.22 in 10.0 mi SSE 9.2 mph - N/A   Clear
9:10 PM 57.2 °F 42.8 °F 59% 30.23 in 10.0 mi SSE 8.1 mph - N/A   Clear
9:30 PM 57.2 °F 41.0 °F 55% 30.23 in 10.0 mi South 6.9 mph - N/A   Clear
9:50 PM 55.4 °F 41.0 °F 58% 30.23 in 10.0 mi South 5.8 mph - N/A   Clear
10:10 PM 55.4 °F 41.0 °F 58% 30.24 in 10.0 mi South 3.5 mph - N/A   Clear
10:30 PM 55.4 °F 41.0 °F 58% 30.24 in 10.0 mi SE 3.5 mph - N/A   Clear
10:50 PM 53.6 °F 39.2 °F 58% 30.24 in 10.0 mi Calm Calm - N/A   Clear
11:30 PM 53.6 °F 39.2 °F 58% 30.24 in 10.0 mi SE 6.9 mph - N/A   Clear
11:50 PM 51.8 °F 39.2 °F 62% 30.24 in 10.0 mi SE 6.9 mph - N/A   Clear